START_TIME,STEP,MOV.,M6,t_acc.,M7,t_acc.,M19,t_acc.,H36,t_acc.
1981-08-27 12:00:27.900 ,5,0,0.,12.0,0.,12.0,0.,12.0,0.,12.0
1981-08-27 12:00:39.900 ,5,0,0.,12.0,0.,12.0,0.,12.0,0.,12.0
1981-08-27 12:00:51.900 ,4,1,0.,12.0,0.,12.0,0.,12.0,0.,12.0
1981-08-27 12:01:03.900 ,4,1,0.,12.0,0.,12.0,0.,12.0,0.,12.0
1981-08-27 12:01:15.900 ,4,0,0.,12.0,0.,12.0,0.,12.0,0.,12.0
1981-08-27 12:01:27.900 ,4,0,0.,12.0,0.,12.0,0.,12.0,0.,12.0
1981-08-27 12:01:39.900 ,3,1,0.,12.0,0.,12.0,0.,12.0,0.,12.0
1981-08-27 12:01:51.900 ,3,1,0.,12.0,0.,12.0,0.,12.0,0.,12.0
1981-08-27 12:02:03.900 ,3,0,0.,12.0,0.,12.0,0.,12.0,0.,12.0
1981-08-27 12:02:15.900 ,3,0,0.,12.0,0.,12.0,0.,12.0,0.,12.0
1981-08-27 12:02:27.900 ,2,1,0.,12.0,0.,12.0,0.,12.0,0.,12.0
1981-08-27 12:02:39.900 ,2,1,0.,12.0,0.,12.0,0.,12.0,0.,12.0
1981-08-27 12:02:51.900 ,2,0,0.,12.0,0.,12.0,0.,12.0,0.,12.0
1981-08-27 12:03:03.900 ,2,0,0.,12.0,0.,12.0,0.,12.0,0.,12.0
1981-08-27 12:03:15.900 ,1,1,0.,12.0,0.,12.0,0.,12.0,0.,12.0
1981-08-27 12:03:27.900 ,1,1,0.,12.0,0.,12.0,0.,12.0,0.,12.0
1981-08-27 12:03:39.900 ,1,0,0.,12.0,0.,12.0,0.,12.0,0.,12.0
1981-08-27 12:03:51.900 ,1,0,0.,12.0,0.,12.0,0.,12.0,0.,12.0
1981-08-27 12:04:03.900 ,0,1,0.,12.0,0.,12.0,0.,12.0,0.,12.0
1981-08-27 12:04:15.900 ,0,1,0.,12.0,0.,12.0,0.,12.0,0.,12.0
1981-08-27 12:04:27.900 ,0,0,0.,12.0,0.,12.0,0.,12.0,0.,12.0
1981-08-27 12:04:39.900 ,0,0,0.,12.0,0.,12.0,0.,12.0,0.,12.0
1981-08-27 12:04:51.900 ,0,1,0.,12.0,0.,12.0,0.,12.0,0.,12.0
1981-08-27 12:05:03.900 ,0,1,0.,12.0,0.,12.0,0.,12.0,0.,12.0
1981-08-27 12:05:15.900 ,0,0,0.,12.0,0.,12.0,0.,12.0,0.,12.0
1981-08-27 12:05:27.900 ,0,0,0.,12.0,0.,12.0,0.,12.0,0.,12.0
1981-08-27 12:05:39.900 ,1,1,0.,12.0,0.,12.0,0.,12.0,0.,12.0
1981-08-27 12:05:51.900 ,1,1,0.,12.0,0.,12.0,0.,12.0,0.,12.0
1981-08-27 12:06:03.900 ,1,0,0.,12.0,0.,12.0,0.,12.0,0.,12.0
1981-08-27 12:06:15.900 ,1,0,0.,12.0,0.,12.0,0.,12.0,0.,12.0
1981-08-27 12:06:27.890 ,2,1,0.,12.0,0.,12.0,0.,12.0,0.,12.0
1981-08-27 12:06:39.890 ,2,1,0.,12.0,0.,12.0,0.,12.0,0.,12.0
1981-08-27 12:06:51.890 ,2,0,0.,12.0,0.,12.0,0.,12.0,0.,12.0
1981-08-27 12:07:03.890 ,2,0,0.,12.0,0.,12.0,0.,12.0,0.,12.0
1981-08-27 12:07:15.890 ,3,1,0.,12.0,0.,12.0,0.,12.0,0.,12.0
1981-08-27 12:07:27.890 ,3,1,0.,12.0,0.,12.0,0.,12.0,0.,12.0
1981-08-27 12:07:39.890 ,3,0,0.,12.0,0.,12.0,0.,12.0,0.,12.0
1981-08-27 12:07:51.890 ,3,0,0.,12.0,0.,12.0,0.,12.0,0.,12.0
1981-08-27 12:08:03.890 ,4,1,0.,12.0,0.,12.0,0.,12.0,0.,12.0
1981-08-27 12:08:15.890 ,4,1,0.,12.0,0.,12.0,0.,12.0,0.,12.0
1981-08-27 12:08:27.890 ,4,0,0.,12.0,0.,12.0,0.,12.0,0.,12.0
1981-08-27 12:08:39.890 ,4,0,0.,12.0,0.,12.0,0.,12.0,0.,12.0
1981-08-27 12:08:51.890 ,5,1,0.,12.0,0.,12.0,0.,12.0,0.,12.0
1981-08-27 12:09:03.890 ,5,1,0.,12.0,0.,12.0,0.,12.0,0.,12.0
1981-08-27 12:09:15.890 ,5,0,0.,12.0,0.,12.0,0.,12.0,0.,12.0
1981-08-27 12:09:27.890 ,5,0,0.,12.0,0.,12.0,0.,12.0,0.,12.0
1981-08-27 12:09:39.890 ,6,1,0.,12.0,0.,12.0,0.,12.0,0.,12.0
1981-08-27 12:09:51.890 ,6,1,0.,12.0,0.,12.0,0.,12.0,0.,12.0
1981-08-27 12:10:03.890 ,6,0,0.,12.0,0.,12.0,0.,12.0,0.,12.0
1981-08-27 12:10:15.890 ,6,0,0.,12.0,0.,12.0,0.,12.0,0.,12.0
1981-08-27 12:11:15.890 ,0,0,0.,12.0,0.,12.0,0.,12.0,0.,12.0
1981-08-27 12:11:27.890 ,0,0,0.,12.0,0.,12.0,0.,12.0,0.,12.0
1981-08-27 12:11:39.890 ,6,1,0.,12.0,0.,12.0,0.,12.0,0.,12.0
1981-08-27 12:11:51.890 ,6,1,0.,12.0,0.,12.0,0.,12.0,0.,12.0
1981-08-27 12:12:03.890 ,5,1,0.,12.0,0.,12.0,0.,12.0,0.,12.0
1981-08-27 12:12:15.890 ,5,1,0.,12.0,0.,12.0,0.,12.0,0.,12.0
1981-08-27 12:12:27.890 ,4,1,0.,12.0,0.,12.0,0.,12.0,0.,12.0
1981-08-27 12:12:39.890 ,4,1,0.,12.0,0.,12.0,0.,12.0,0.,12.0
1981-08-27 12:12:51.890 ,3,1,0.,12.0,0.,12.0,0.,12.0,0.,12.0
1981-08-27 12:13:03.890 ,3,1,0.,12.0,0.,12.0,0.,12.0,0.,12.0
1981-08-27 12:13:15.890 ,2,1,0.,12.0,0.,12.0,0.,12.0,0.,12.0
1981-08-27 12:13:27.890 ,2,1,0.,12.0,0.,12.0,0.,12.0,0.,12.0
1981-08-27 12:13:39.890 ,1,1,0.,12.0,0.,12.0,0.,12.0,0.,12.0
1981-08-27 12:13:51.890 ,1,1,0.,12.0,0.,12.0,0.,12.0,0.,12.0
1981-08-27 12:14:03.890 ,0,1,0.,12.0,0.,12.0,0.,12.0,0.,12.0
1981-08-27 12:14:15.890 ,0,1,0.,12.0,0.,12.0,0.,12.0,0.,12.0
1981-08-27 12:14:27.890 ,0,1,0.,12.0,0.,12.0,0.,12.0,0.,12.0
1981-08-27 12:14:39.890 ,0,1,0.,12.0,0.,12.0,0.,12.0,0.,12.0
1981-08-27 12:14:51.890 ,1,1,0.,12.0,0.,12.0,0.,12.0,0.,12.0
1981-08-27 12:15:03.890 ,1,1,0.,12.0,0.,12.0,0.,12.0,0.,12.0
1981-08-27 12:15:15.890 ,2,1,0.,12.0,0.,12.0,0.,12.0,0.,12.0
1981-08-27 12:15:27.890 ,2,1,0.,12.0,0.,12.0,0.,12.0,0.,12.0
1981-08-27 12:15:39.890 ,3,1,0.,12.0,0.,12.0,0.,12.0,0.,12.0
1981-08-27 12:15:51.890 ,3,1,0.,12.0,0.,12.0,0.,12.0,0.,12.0
1981-08-27 12:16:03.890 ,4,1,0.,12.0,0.,12.0,0.,12.0,0.,12.0
1981-08-27 12:16:15.890 ,4,1,0.,12.0,0.,12.0,0.,12.0,0.,12.0
1981-08-27 12:16:27.890 ,5,1,0.,12.0,0.,12.0,0.,12.0,0.,12.0
1981-08-27 12:16:39.890 ,5,1,0.,12.0,0.,12.0,0.,12.0,0.,12.0
1981-08-27 12:16:51.890 ,6,1,0.,12.0,0.,12.0,0.,12.0,0.,12.0
1981-08-27 12:17:03.890 ,6,1,0.,12.0,0.,12.0,0.,12.0,0.,12.0
1981-08-27 12:17:15.890 ,7,1,0.,12.0,0.,12.0,0.,12.0,0.,12.0
1981-08-27 12:17:27.890 ,7,1,0.,12.0,0.,12.0,0.,12.0,0.,12.0
1981-08-27 12:17:39.890 ,7,1,0.,12.0,0.,12.0,0.,12.0,0.,12.0
1981-08-27 12:17:51.890 ,7,1,0.,12.0,0.,12.0,0.,12.0,0.,12.0
1981-08-27 12:18:03.890 ,7,0,0.,12.0,0.,12.0,0.,12.0,0.,12.0
1981-08-27 12:18:15.890 ,7,0,0.,12.0,0.,12.0,0.,12.0,0.,12.0
1981-08-27 12:18:27.890 ,6,1,0.,12.0,0.,12.0,0.,12.0,0.,12.0
1981-08-27 12:18:39.890 ,6,1,0.,12.0,0.,12.0,0.,12.0,0.,12.0
1981-08-27 12:18:51.890 ,6,0,0.,12.0,0.,12.0,0.,12.0,0.,12.0
1981-08-27 12:19:03.890 ,6,0,0.,12.0,0.,12.0,0.,12.0,0.,12.0
1981-08-27 12:19:15.890 ,5,1,0.,12.0,0.,12.0,0.,12.0,0.,12.0
1981-08-27 12:19:27.890 ,5,1,0.,12.0,0.,12.0,0.,12.0,0.,12.0
1981-08-27 12:19:39.890 ,5,0,0.,12.0,0.,12.0,0.,12.0,0.,12.0
1981-08-27 12:19:51.890 ,5,0,0.,12.0,0.,12.0,0.,12.0,0.,12.0
1981-08-27 12:20:03.890 ,4,1,0.,12.0,0.,12.0,0.,12.0,0.,12.0
1981-08-27 12:20:15.890 ,4,1,0.,12.0,0.,12.0,0.,12.0,0.,12.0
1981-08-27 12:20:27.890 ,4,0,0.,12.0,0.,12.0,0.,12.0,0.,12.0
1981-08-27 12:20:39.890 ,4,0,0.,12.0,0.,12.0,0.,12.0,0.,12.0
1981-08-27 12:20:51.890 ,3,1,0.,12.0,0.,12.0,0.,12.0,0.,12.0
1981-08-27 12:21:03.890 ,3,1,0.,12.0,0.,12.0,0.,12.0,0.,12.0
1981-08-27 12:21:15.890 ,3,0,0.,12.0,0.,12.0,0.,12.0,0.,12.0
1981-08-27 12:21:27.890 ,3,0,0.,12.0,0.,12.0,0.,12.0,0.,12.0
1981-08-27 12:21:39.890 ,2,1,0.,12.0,0.,12.0,0.,12.0,0.,12.0
1981-08-27 12:21:51.890 ,2,1,0.,12.0,0.,12.0,0.,12.0,0.,12.0
1981-08-27 12:22:03.890 ,2,0,0.,12.0,0.,12.0,0.,12.0,0.,12.0
1981-08-27 12:22:15.890 ,2,0,0.,12.0,0.,12.0,0.,12.0,0.,12.0
1981-08-27 12:22:27.890 ,1,1,0.,12.0,0.,12.0,0.,12.0,0.,12.0
1981-08-27 12:22:39.890 ,1,1,0.,12.0,0.,12.0,0.,12.0,0.,12.0
1981-08-27 12:22:51.890 ,1,0,0.,12.0,0.,12.0,0.,12.0,0.,12.0
1981-08-27 12:23:03.890 ,1,0,0.,12.0,0.,12.0,0.,12.0,0.,12.0
1981-08-27 12:23:15.890 ,0,1,0.,12.0,0.,12.0,0.,12.0,0.,12.0
1981-08-27 12:23:27.890 ,0,1,0.,12.0,0.,12.0,0.,12.0,0.,12.0
1981-08-27 12:23:39.890 ,0,0,0.,12.0,0.,12.0,0.,12.0,0.,12.0
1981-08-27 12:23:51.890 ,0,0,0.,12.0,0.,12.0,0.,12.0,0.,12.0
1981-08-27 12:24:03.890 ,0,1,0.,12.0,0.,12.0,0.,12.0,0.,12.0
1981-08-27 12:24:15.890 ,0,1,0.,12.0,0.,12.0,0.,12.0,0.,12.0
1981-08-27 12:24:27.890 ,0,0,0.,12.0,0.,12.0,0.,12.0,0.,12.0
1981-08-27 12:24:39.890 ,0,0,0.,12.0,0.,12.0,0.,12.0,0.,12.0
1981-08-27 12:24:51.890 ,1,1,0.,12.0,0.,12.0,0.,12.0,0.,12.0
1981-08-27 12:25:03.890 ,1,1,0.,12.0,0.,12.0,0.,12.0,0.,12.0
1981-08-27 12:25:15.890 ,1,0,0.,12.0,0.,12.0,0.,12.0,0.,12.0
1981-08-27 12:25:27.890 ,1,0,0.,12.0,0.,12.0,0.,12.0,0.,12.0
1981-08-27 12:25:39.890 ,2,1,0.,12.0,0.,12.0,0.,12.0,0.,12.0
1981-08-27 12:25:51.890 ,2,1,0.,12.0,0.,12.0,0.,12.0,0.,12.0
1981-08-27 12:26:03.890 ,2,0,0.,12.0,0.,12.0,0.,12.0,0.,12.0
1981-08-27 12:26:15.890 ,2,0,0.,12.0,0.,12.0,0.,12.0,0.,12.0
1981-08-27 12:26:27.890 ,3,1,0.,12.0,0.,12.0,0.,12.0,0.,12.0
1981-08-27 12:26:39.890 ,3,1,0.,12.0,0.,12.0,0.,12.0,0.,12.0
1981-08-27 12:26:51.890 ,3,0,0.,12.0,0.,12.0,0.,12.0,0.,12.0
1981-08-27 12:27:03.890 ,3,0,0.,12.0,0.,12.0,0.,12.0,0.,12.0
1981-08-27 12:27:15.890 ,4,1,0.,12.0,0.,12.0,0.,12.0,0.,12.0
1981-08-27 12:27:27.890 ,4,1,0.,12.0,0.,12.0,0.,12.0,0.,12.0
1981-08-27 12:27:39.890 ,4,0,0.,12.0,0.,12.0,0.,12.0,0.,12.0
1981-08-27 12:27:51.890 ,4,0,0.,12.0,0.,12.0,0.,12.0,0.,12.0
1981-08-27 12:28:03.890 ,5,1,0.,12.0,0.,12.0,0.,12.0,0.,12.0
1981-08-27 12:28:15.890 ,5,1,0.,12.0,0.,12.0,0.,12.0,0.,12.0
1981-08-27 12:28:27.890 ,5,0,0.,12.0,0.,12.0,0.,12.0,0.,12.0
1981-08-27 12:28:39.890 ,5,0,0.,12.0,0.,12.0,0.,12.0,0.,12.0
1981-08-27 12:28:51.890 ,6,1,0.,12.0,0.,12.0,0.,12.0,0.,12.0
1981-08-27 12:29:03.890 ,6,1,0.,12.0,0.,12.0,0.,12.0,0.,12.0
1981-08-27 12:29:15.890 ,6,0,0.,12.0,0.,12.0,0.,12.0,0.,12.0
1981-08-27 12:29:27.890 ,6,0,0.,12.0,0.,12.0,0.,12.0,0.,12.0
1981-08-27 12:29:39.890 ,7,1,0.,12.0,0.,12.0,0.,12.0,0.,12.0
1981-08-27 12:29:51.890 ,7,1,0.,12.0,0.,12.0,0.,12.0,0.,12.0
1981-08-27 12:30:03.890 ,7,0,0.,12.0,0.,12.0,0.,12.0,0.,12.0
1981-08-27 12:30:15.890 ,7,0,0.,12.0,0.,12.0,0.,12.0,0.,12.0
1981-08-27 12:30:27.890 ,7,1,0.,12.0,0.,12.0,0.,12.0,0.,12.0
1981-08-27 12:30:39.890 ,7,1,0.,12.0,0.,12.0,0.,12.0,0.,12.0
1981-08-27 12:30:51.890 ,6,1,0.,12.0,0.,12.0,0.,12.0,0.,12.0
1981-08-27 12:31:03.890 ,6,1,0.,12.0,0.,12.0,0.,12.0,0.,12.0
1981-08-27 12:31:15.890 ,5,1,0.,12.0,0.,12.0,0.,12.0,0.,12.0
1981-08-27 12:31:27.890 ,5,1,0.,12.0,0.,12.0,0.,12.0,0.,12.0
1981-08-27 12:31:39.890 ,4,1,0.,12.0,0.,12.0,0.,12.0,0.,12.0
1981-08-27 12:31:51.890 ,4,1,0.,12.0,0.,12.0,0.,12.0,0.,12.0
1981-08-27 12:32:03.890 ,3,1,0.,12.0,0.,12.0,0.,12.0,0.,12.0
1981-08-27 12:32:15.890 ,3,1,0.,12.0,0.,12.0,0.,12.0,0.,12.0
1981-08-27 12:32:27.890 ,2,1,0.,12.0,0.,12.0,0.,12.0,0.,12.0
1981-08-27 12:32:39.890 ,2,1,0.,12.0,0.,12.0,0.,12.0,0.,12.0
1981-08-27 12:32:51.890 ,1,1,0.,12.0,0.,12.0,0.,12.0,0.,12.0
1981-08-27 12:33:03.890 ,1,1,0.,12.0,0.,12.0,0.,12.0,0.,12.0
1981-08-27 12:33:15.890 ,0,1,0.,12.0,0.,12.0,0.,12.0,0.,12.0
1981-08-27 12:33:27.890 ,0,1,0.,12.0,0.,12.0,0.,12.0,0.,12.0
1981-08-27 12:33:39.890 ,0,1,0.,12.0,0.,12.0,0.,12.0,0.,12.0
1981-08-27 12:33:51.890 ,0,1,0.,12.0,0.,12.0,0.,12.0,0.,12.0
1981-08-27 12:34:03.890 ,1,1,0.,12.0,0.,12.0,0.,12.0,0.,12.0
1981-08-27 12:34:15.890 ,1,1,0.,12.0,0.,12.0,0.,12.0,0.,12.0
1981-08-27 12:34:27.890 ,2,1,0.,12.0,0.,12.0,0.,12.0,0.,12.0
1981-08-27 12:34:39.890 ,2,1,0.,12.0,0.,12.0,0.,12.0,0.,12.0
1981-08-27 12:34:51.890 ,3,1,0.,12.0,0.,12.0,0.,12.0,0.,12.0
1981-08-27 12:35:03.890 ,3,1,0.,12.0,0.,12.0,0.,12.0,0.,12.0
1981-08-27 12:36:03.890 ,0,0,0.,12.0,0.,12.0,0.,12.0,0.,12.0
1981-08-27 12:36:15.890 ,0,0,0.,12.0,0.,12.0,0.,12.0,0.,12.0
1981-08-27 12:36:27.890 ,7,1,0.,12.0,0.,12.0,0.,12.0,0.,12.0
1981-08-27 12:36:39.890 ,7,1,0.,12.0,0.,12.0,0.,12.0,0.,12.0
1981-08-27 12:36:51.890 ,7,1,0.,12.0,0.,12.0,0.,12.0,0.,12.0
1981-08-27 12:37:03.890 ,7,1,0.,12.0,0.,12.0,0.,12.0,0.,12.0
1981-08-27 12:37:15.890 ,7,0,0.,12.0,0.,12.0,0.,12.0,0.,12.0
1981-08-27 12:37:27.890 ,7,0,0.,12.0,0.,12.0,0.,12.0,0.,12.0
1981-08-27 12:37:39.890 ,6,1,0.,12.0,0.,12.0,0.,12.0,0.,12.0
1981-08-27 12:37:51.890 ,6,1,0.,12.0,0.,12.0,0.,12.0,0.,12.0
1981-08-27 12:38:03.890 ,6,0,0.,12.0,0.,12.0,0.,12.0,0.,12.0
1981-08-27 12:38:15.890 ,6,0,0.,12.0,0.,12.0,0.,12.0,0.,12.0
1981-08-27 12:38:27.890 ,5,1,0.,12.0,0.,12.0,0.,12.0,0.,12.0
1981-08-27 12:38:39.890 ,5,1,0.,12.0,0.,12.0,0.,12.0,0.,12.0
1981-08-27 12:38:51.890 ,5,0,0.,12.0,0.,12.0,0.,12.0,0.,12.0
1981-08-27 12:39:03.890 ,5,0,0.,12.0,0.,12.0,0.,12.0,0.,12.0
1981-08-27 12:39:15.890 ,4,1,0.,12.0,0.,12.0,0.,12.0,0.,12.0
1981-08-27 12:39:27.890 ,4,1,0.,12.0,0.,12.0,0.,12.0,0.,12.0
1981-08-27 12:39:39.890 ,4,0,0.,12.0,0.,12.0,0.,12.0,0.,12.0
1981-08-27 12:39:51.890 ,4,0,0.,12.0,0.,12.0,0.,12.0,0.,12.0
1981-08-27 12:40:03.890 ,3,1,0.,12.0,0.,12.0,0.,12.0,0.,12.0
1981-08-27 12:40:15.890 ,3,1,0.,12.0,0.,12.0,0.,12.0,0.,12.0
1981-08-27 12:40:27.890 ,3,0,0.,12.0,0.,12.0,0.,12.0,0.,12.0
1981-08-27 12:40:39.890 ,3,0,0.,12.0,0.,12.0,0.,12.0,0.,12.0
1981-08-27 12:40:51.890 ,2,1,0.,12.0,0.,12.0,0.,12.0,0.,12.0
1981-08-27 12:41:03.890 ,2,1,0.,12.0,0.,12.0,0.,12.0,0.,12.0
1981-08-27 12:41:15.890 ,2,0,0.,12.0,0.,12.0,0.,12.0,0.,12.0
1981-08-27 12:41:27.890 ,2,0,0.,12.0,0.,12.0,0.,12.0,0.,12.0
1981-08-27 12:41:39.890 ,1,1,0.,12.0,0.,12.0,0.,12.0,0.,12.0
1981-08-27 12:41:51.890 ,1,1,0.,12.0,0.,12.0,0.,12.0,0.,12.0
1981-08-27 12:42:03.890 ,1,0,0.,12.0,0.,12.0,0.,12.0,0.,12.0
1981-08-27 12:42:15.890 ,1,0,0.,12.0,0.,12.0,0.,12.0,0.,12.0
1981-08-27 12:42:27.890 ,0,1,0.,12.0,0.,12.0,0.,12.0,0.,12.0
1981-08-27 12:42:39.890 ,0,1,0.,12.0,0.,12.0,0.,12.0,0.,12.0
1981-08-27 12:42:51.890 ,0,0,0.,12.0,0.,12.0,0.,12.0,0.,12.0
1981-08-27 12:43:03.890 ,0,0,0.,12.0,0.,12.0,0.,12.0,0.,12.0
1981-08-27 12:43:15.890 ,0,1,0.,12.0,0.,12.0,0.,12.0,0.,12.0
1981-08-27 12:43:27.890 ,0,1,0.,12.0,0.,12.0,0.,12.0,0.,12.0
1981-08-27 12:43:39.890 ,0,0,0.,12.0,0.,12.0,0.,12.0,0.,12.0
1981-08-27 12:43:51.890 ,0,0,0.,12.0,0.,12.0,0.,12.0,0.,12.0
1981-08-27 12:44:03.890 ,1,1,0.,12.0,0.,12.0,0.,12.0,0.,12.0
1981-08-27 12:44:15.890 ,1,1,0.,12.0,0.,12.0,0.,12.0,0.,12.0
1981-08-27 12:44:27.890 ,1,0,0.,12.0,0.,12.0,0.,12.0,0.,12.0
1981-08-27 12:44:39.890 ,1,0,0.,12.0,0.,12.0,0.,12.0,0.,12.0
1981-08-27 12:44:51.890 ,2,1,0.,12.0,0.,12.0,0.,12.0,0.,12.0
1981-08-27 12:45:03.890 ,2,1,0.,12.0,0.,12.0,0.,12.0,0.,12.0
1981-08-27 12:45:15.890 ,2,0,0.,12.0,0.,12.0,0.,12.0,0.,12.0
1981-08-27 12:45:27.890 ,2,0,0.,12.0,0.,12.0,0.,12.0,0.,12.0
1981-08-27 12:45:39.890 ,3,1,0.,12.0,0.,12.0,0.,12.0,0.,12.0
1981-08-27 12:45:51.890 ,3,1,0.,12.0,0.,12.0,0.,12.0,0.,12.0
1981-08-27 12:46:03.890 ,3,0,0.,12.0,0.,12.0,0.,12.0,0.,12.0
1981-08-27 12:46:15.890 ,3,0,0.,12.0,0.,12.0,0.,12.0,0.,12.0
1981-08-27 12:46:27.890 ,4,1,0.,12.0,0.,12.0,0.,12.0,0.,12.0
1981-08-27 12:46:39.890 ,4,1,0.,12.0,0.,12.0,0.,12.0,0.,12.0
1981-08-27 12:46:51.890 ,4,0,0.,12.0,0.,12.0,0.,12.0,0.,12.0
1981-08-27 12:47:03.890 ,4,0,0.,12.0,0.,12.0,0.,12.0,0.,12.0
1981-08-27 12:47:15.890 ,5,1,0.,12.0,0.,12.0,0.,12.0,0.,12.0
1981-08-27 12:47:27.890 ,5,1,0.,12.0,0.,12.0,0.,12.0,0.,12.0
1981-08-27 12:47:39.890 ,5,0,0.,12.0,0.,12.0,0.,12.0,0.,12.0
1981-08-27 12:47:51.890 ,5,0,0.,12.0,0.,12.0,0.,12.0,0.,12.0
1981-08-27 12:48:03.890 ,6,1,0.,12.0,0.,12.0,0.,12.0,0.,12.0
1981-08-27 12:48:15.890 ,6,1,0.,12.0,0.,12.0,0.,12.0,0.,12.0
1981-08-27 12:48:27.890 ,6,0,0.,12.0,0.,12.0,0.,12.0,0.,12.0
1981-08-27 12:48:39.890 ,6,0,0.,12.0,0.,12.0,0.,12.0,0.,12.0
1981-08-27 12:48:51.890 ,7,1,0.,12.0,0.,12.0,0.,12.0,0.,12.0
1981-08-27 12:49:03.890 ,7,1,0.,12.0,0.,12.0,0.,12.0,0.,12.0
1981-08-27 12:49:15.890 ,7,0,0.,12.0,0.,12.0,0.,12.0,0.,12.0
1981-08-27 12:49:27.890 ,7,0,0.,12.0,0.,12.0,0.,12.0,0.,12.0
1981-08-27 12:49:39.890 ,7,1,0.,12.0,0.,12.0,0.,12.0,0.,12.0
1981-08-27 12:49:51.890 ,7,1,0.,12.0,0.,12.0,0.,12.0,0.,12.0
1981-08-27 12:50:03.890 ,6,1,0.,12.0,0.,12.0,0.,12.0,0.,12.0
1981-08-27 12:50:15.890 ,6,1,0.,12.0,0.,12.0,0.,12.0,0.,12.0
1981-08-27 12:50:27.890 ,5,1,0.,12.0,0.,12.0,0.,12.0,0.,12.0
1981-08-27 12:50:39.890 ,5,1,0.,12.0,0.,12.0,0.,12.0,0.,12.0
1981-08-27 12:50:51.890 ,4,1,0.,12.0,0.,12.0,0.,12.0,0.,12.0
1981-08-27 12:51:03.890 ,4,1,0.,12.0,0.,12.0,0.,12.0,0.,12.0
1981-08-27 12:51:15.890 ,3,1,0.,12.0,0.,12.0,0.,12.0,0.,12.0
1981-08-27 12:51:27.890 ,3,1,0.,12.0,0.,12.0,0.,12.0,0.,12.0
1981-08-27 12:51:39.890 ,2,1,0.,12.0,0.,12.0,0.,12.0,0.,12.0
1981-08-27 12:51:51.890 ,2,1,0.,12.0,0.,12.0,0.,12.0,0.,12.0
1981-08-27 12:52:03.890 ,1,1,0.,12.0,0.,12.0,0.,12.0,0.,12.0
1981-08-27 12:52:15.890 ,1,1,0.,12.0,0.,12.0,0.,12.0,0.,12.0
1981-08-27 12:52:27.890 ,0,1,0.,12.0,0.,12.0,0.,12.0,0.,12.0
1981-08-27 12:52:39.890 ,0,1,0.,12.0,0.,12.0,0.,12.0,0.,12.0
1981-08-27 12:52:51.890 ,0,1,0.,12.0,0.,12.0,0.,12.0,0.,12.0
1981-08-27 12:53:03.890 ,0,1,0.,12.0,0.,12.0,0.,12.0,0.,12.0
1981-08-27 12:53:15.890 ,1,1,0.,12.0,0.,12.0,0.,12.0,0.,12.0
1981-08-27 12:53:27.890 ,1,1,0.,12.0,0.,12.0,0.,12.0,0.,12.0
1981-08-27 12:53:39.890 ,2,1,0.,12.0,0.,12.0,0.,12.0,0.,12.0
1981-08-27 12:53:51.890 ,2,1,0.,12.0,0.,12.0,0.,12.0,0.,12.0
1981-08-27 12:54:03.890 ,3,1,0.,12.0,0.,12.0,0.,12.0,0.,12.0
1981-08-27 12:54:15.890 ,3,1,0.,12.0,0.,12.0,0.,12.0,0.,12.0
1981-08-27 12:54:27.890 ,4,1,0.,12.0,0.,12.0,0.,12.0,0.,12.0
1981-08-27 12:54:39.890 ,4,1,0.,12.0,0.,12.0,0.,12.0,0.,12.0
1981-08-27 12:54:51.890 ,5,1,0.,12.0,0.,12.0,0.,12.0,0.,12.0
1981-08-27 12:55:03.890 ,5,1,0.,12.0,0.,12.0,0.,12.0,0.,12.0
1981-08-27 12:55:15.890 ,6,1,0.,12.0,0.,12.0,0.,12.0,0.,12.0
1981-08-27 12:55:27.890 ,6,1,0.,12.0,0.,12.0,0.,12.0,0.,12.0
1981-08-27 12:55:39.890 ,7,1,0.,12.0,0.,12.0,0.,12.0,0.,12.0
1981-08-27 12:55:51.890 ,7,1,0.,12.0,0.,12.0,0.,12.0,0.,12.0
1981-08-27 12:56:03.890 ,7,1,0.,12.0,0.,12.0,0.,12.0,0.,12.0
1981-08-27 12:56:15.890 ,7,1,0.,12.0,0.,12.0,0.,12.0,0.,12.0
1981-08-27 12:56:27.890 ,7,0,0.,12.0,0.,12.0,0.,12.0,0.,12.0
1981-08-27 12:56:39.890 ,7,0,0.,12.0,0.,12.0,0.,12.0,0.,12.0
1981-08-27 12:56:51.890 ,6,1,0.,12.0,0.,12.0,0.,12.0,0.,12.0
1981-08-27 12:57:03.890 ,6,1,0.,12.0,0.,12.0,0.,12.0,0.,12.0
1981-08-27 12:57:15.890 ,6,0,0.,12.0,0.,12.0,0.,12.0,0.,12.0
1981-08-27 12:57:27.890 ,6,0,0.,12.0,0.,12.0,0.,12.0,0.,12.0
1981-08-27 12:57:39.890 ,5,1,0.,12.0,0.,12.0,0.,12.0,0.,12.0
1981-08-27 12:57:51.890 ,5,1,0.,12.0,0.,12.0,0.,12.0,0.,12.0
1981-08-27 12:58:03.890 ,5,0,0.,12.0,0.,12.0,0.,12.0,0.,12.0
1981-08-27 12:58:15.890 ,5,0,0.,12.0,0.,12.0,0.,12.0,0.,12.0
1981-08-27 12:58:27.890 ,4,1,0.,12.0,0.,12.0,0.,12.0,0.,12.0
1981-08-27 12:58:39.890 ,4,1,0.,12.0,0.,12.0,0.,12.0,0.,12.0
1981-08-27 12:58:51.890 ,4,0,0.,12.0,0.,12.0,0.,12.0,0.,12.0
1981-08-27 12:59:03.890 ,4,0,0.,12.0,0.,12.0,0.,12.0,0.,12.0
1981-08-27 12:59:15.890 ,3,1,0.,12.0,0.,12.0,0.,12.0,0.,12.0
1981-08-27 12:59:27.890 ,3,1,0.,12.0,0.,12.0,0.,12.0,0.,12.0
1981-08-27 12:59:39.890 ,3,0,0.,12.0,0.,12.0,0.,12.0,0.,12.0
1981-08-27 12:59:51.890 ,3,0,0.,12.0,0.,12.0,0.,12.0,0.,12.0
1981-08-27 13:00:03.890 ,2,1,0.,12.0,0.,12.0,0.,12.0,0.,12.0
1981-08-27 13:00:15.890 ,2,1,0.,12.0,0.,12.0,0.,12.0,0.,12.0
1981-08-27 13:00:27.890 ,2,0,0.,12.0,0.,12.0,0.,12.0,0.,12.0
1981-08-27 13:00:39.890 ,2,0,0.,12.0,0.,12.0,0.,12.0,0.,12.0
1981-08-27 13:00:51.890 ,1,1,0.,12.0,0.,12.0,0.,12.0,0.,12.0
1981-08-27 13:01:03.890 ,1,1,0.,12.0,0.,12.0,0.,12.0,0.,12.0
1981-08-27 13:01:15.890 ,1,0,0.,12.0,0.,12.0,0.,12.0,0.,12.0
1981-08-27 13:01:27.890 ,1,0,0.,12.0,0.,12.0,0.,12.0,0.,12.0
1981-08-27 13:01:39.890 ,0,1,0.,12.0,0.,12.0,0.,12.0,0.,12.0
1981-08-27 13:01:51.890 ,0,1,0.,12.0,0.,12.0,0.,12.0,0.,12.0
1981-08-27 13:02:03.890 ,0,0,0.,12.0,0.,12.0,0.,12.0,0.,12.0
1981-08-27 13:02:15.890 ,0,0,0.,12.0,0.,12.0,0.,12.0,0.,12.0
1981-08-27 13:02:27.890 ,0,1,0.,12.0,0.,12.0,0.,12.0,0.,12.0
1981-08-27 13:02:39.890 ,0,1,0.,12.0,0.,12.0,0.,12.0,0.,12.0
1981-08-27 13:02:51.890 ,0,0,0.,12.0,0.,12.0,0.,12.0,0.,12.0
1981-08-27 13:03:03.890 ,0,0,0.,12.0,0.,12.0,0.,12.0,0.,12.0
1981-08-27 13:03:15.890 ,1,1,0.,12.0,0.,12.0,0.,12.0,0.,12.0
1981-08-27 13:03:27.890 ,1,1,0.,12.0,0.,12.0,0.,12.0,0.,12.0
1981-08-27 13:03:39.890 ,1,0,0.,12.0,0.,12.0,0.,12.0,0.,12.0
1981-08-27 13:03:51.890 ,1,0,0.,12.0,0.,12.0,0.,12.0,0.,12.0
1981-08-27 13:04:03.890 ,2,1,0.,12.0,0.,12.0,0.,12.0,0.,12.0
1981-08-27 13:04:15.890 ,2,1,0.,12.0,0.,12.0,0.,12.0,0.,12.0
1981-08-27 13:04:27.890 ,2,0,0.,12.0,0.,12.0,0.,12.0,0.,12.0
1981-08-27 13:04:39.890 ,2,0,0.,12.0,0.,12.0,0.,12.0,0.,12.0
1981-08-27 13:04:51.890 ,3,1,0.,12.0,0.,12.0,0.,12.0,0.,12.0
1981-08-27 13:05:03.890 ,3,1,0.,12.0,0.,12.0,0.,12.0,0.,12.0
1981-08-27 13:05:15.890 ,3,0,0.,12.0,0.,12.0,0.,12.0,0.,12.0
1981-08-27 13:05:27.890 ,3,0,0.,12.0,0.,12.0,0.,12.0,0.,12.0
1981-08-27 13:05:39.890 ,4,1,0.,12.0,0.,12.0,0.,12.0,0.,12.0
1981-08-27 13:05:51.890 ,4,1,0.,12.0,0.,12.0,0.,12.0,0.,12.0
1981-08-27 13:06:03.890 ,4,0,0.,12.0,0.,12.0,0.,12.0,0.,12.0
1981-08-27 13:06:15.890 ,4,0,0.,12.0,0.,12.0,0.,12.0,0.,12.0
1981-08-27 13:06:27.890 ,5,1,0.,12.0,0.,12.0,0.,12.0,0.,12.0
1981-08-27 13:06:39.890 ,5,1,0.,12.0,0.,12.0,0.,12.0,0.,12.0
1981-08-27 13:06:51.890 ,5,0,0.,12.0,0.,12.0,0.,12.0,0.,12.0
1981-08-27 13:07:03.890 ,5,0,0.,12.0,0.,12.0,0.,12.0,0.,12.0
1981-08-27 13:07:15.890 ,6,1,0.,12.0,0.,12.0,0.,12.0,0.,12.0
1981-08-27 13:07:27.890 ,6,1,0.,12.0,0.,12.0,0.,12.0,0.,12.0
1981-08-27 13:07:39.890 ,6,0,0.,12.0,0.,12.0,0.,12.0,0.,12.0
1981-08-27 13:07:51.890 ,6,0,0.,12.0,0.,12.0,0.,12.0,0.,12.0
1981-08-27 13:08:03.890 ,7,1,0.,12.0,0.,12.0,0.,12.0,0.,12.0
1981-08-27 13:08:15.890 ,7,1,0.,12.0,0.,12.0,0.,12.0,0.,12.0
1981-08-27 13:08:27.890 ,7,0,0.,12.0,0.,12.0,0.,12.0,0.,12.0
1981-08-27 13:08:39.890 ,7,0,0.,12.0,0.,12.0,0.,12.0,0.,12.0
1981-08-27 13:08:51.890 ,7,1,0.,12.0,0.,12.0,0.,12.0,0.,12.0
1981-08-27 13:09:03.890 ,7,1,0.,12.0,0.,12.0,0.,12.0,0.,12.0
1981-08-27 13:09:15.890 ,6,1,0.,12.0,0.,12.0,0.,12.0,0.,12.0
1981-08-27 13:09:27.890 ,6,1,0.,12.0,0.,12.0,0.,12.0,0.,12.0
1981-08-27 13:09:39.890 ,5,1,0.,12.0,0.,12.0,0.,12.0,0.,12.0
1981-08-27 13:09:51.890 ,5,1,0.,12.0,0.,12.0,0.,12.0,0.,12.0
1981-08-27 13:10:03.890 ,4,1,0.,12.0,0.,12.0,0.,12.0,0.,12.0
1981-08-27 13:10:15.890 ,4,1,0.,12.0,0.,12.0,0.,12.0,0.,12.0
1981-08-27 13:10:27.890 ,3,1,0.,12.0,0.,12.0,0.,12.0,0.,12.0
1981-08-27 13:10:39.890 ,3,1,0.,12.0,0.,12.0,0.,12.0,0.,12.0
1981-08-27 13:10:51.890 ,2,1,0.,12.0,0.,12.0,0.,12.0,0.,12.0
1981-08-27 13:11:03.890 ,2,1,0.,12.0,0.,12.0,0.,12.0,0.,12.0
1981-08-27 13:11:15.890 ,1,1,0.,12.0,0.,12.0,0.,12.0,0.,12.0
1981-08-27 13:11:27.890 ,1,1,0.,12.0,0.,12.0,0.,12.0,0.,12.0
1981-08-27 13:11:39.890 ,0,1,0.,12.0,0.,12.0,0.,12.0,0.,12.0
1981-08-27 13:11:51.890 ,0,1,0.,12.0,0.,12.0,0.,12.0,0.,12.0
1981-08-27 13:12:03.890 ,0,1,0.,12.0,0.,12.0,0.,12.0,0.,12.0
1981-08-27 13:12:15.890 ,0,1,0.,12.0,0.,12.0,0.,12.0,0.,12.0
1981-08-27 13:12:27.890 ,1,1,0.,12.0,0.,12.0,0.,12.0,0.,12.0
1981-08-27 13:12:39.890 ,1,1,0.,12.0,0.,12.0,0.,12.0,0.,12.0
1981-08-27 13:12:51.890 ,2,1,0.,12.0,0.,12.0,0.,12.0,0.,12.0
1981-08-27 13:13:03.890 ,2,1,0.,12.0,0.,12.0,0.,12.0,0.,12.0
1981-08-27 13:13:15.890 ,3,1,0.,12.0,0.,12.0,0.,12.0,0.,12.0
1981-08-27 13:13:27.890 ,3,1,0.,12.0,0.,12.0,0.,12.0,0.,12.0
1981-08-27 13:13:39.890 ,4,1,0.,12.0,0.,12.0,0.,12.0,0.,12.0
1981-08-27 13:13:51.890 ,4,1,0.,12.0,0.,12.0,0.,12.0,0.,12.0
1981-08-27 13:14:03.890 ,5,1,0.,12.0,0.,12.0,0.,12.0,0.,12.0
1981-08-27 13:14:15.890 ,5,1,0.,12.0,0.,12.0,0.,12.0,0.,12.0
1981-08-27 13:14:27.890 ,6,1,0.,12.0,0.,12.0,0.,12.0,0.,12.0
1981-08-27 13:14:39.890 ,6,1,0.,12.0,0.,12.0,0.,12.0,0.,12.0
1981-08-27 13:14:51.890 ,7,1,0.,12.0,0.,12.0,0.,12.0,0.,12.0
1981-08-27 13:15:03.890 ,7,1,0.,12.0,0.,12.0,0.,12.0,0.,12.0
1981-08-27 13:15:15.890 ,7,1,0.,12.0,0.,12.0,0.,12.0,0.,12.0
1981-08-27 13:15:27.890 ,7,1,0.,12.0,0.,12.0,0.,12.0,0.,12.0
1981-08-27 13:15:39.890 ,7,0,0.,12.0,0.,12.0,0.,12.0,0.,12.0
1981-08-27 13:15:51.890 ,7,0,0.,12.0,0.,12.0,0.,12.0,0.,12.0
1981-08-27 13:16:03.890 ,6,1,0.,12.0,0.,12.0,0.,12.0,0.,12.0
1981-08-27 13:16:15.890 ,6,1,0.,12.0,0.,12.0,0.,12.0,0.,12.0
1981-08-27 13:16:27.890 ,6,0,0.,12.0,0.,12.0,0.,12.0,0.,12.0
1981-08-27 13:16:39.890 ,6,0,0.,12.0,0.,12.0,0.,12.0,0.,12.0
1981-08-27 13:16:51.890 ,5,1,0.,12.0,0.,12.0,0.,12.0,0.,12.0
1981-08-27 13:17:03.890 ,5,1,0.,12.0,0.,12.0,0.,12.0,0.,12.0
1981-08-27 13:17:15.890 ,0,0,0.,12.0,0.,12.0,0.,12.0,0.,12.0
1981-08-27 13:17:27.890 ,0,0,0.,12.0,0.,12.0,0.,12.0,0.,12.0
1981-08-27 13:17:42.890 ,0,0,0.,12.0,0.,12.0,0.,12.0,0.,12.0
1981-08-27 13:17:54.890 ,0,0,0.,12.0,0.,12.0,0.,12.0,0.,12.0
1981-08-27 13:18:03.890 ,0,0,0.,12.0,0.,12.0,0.,12.0,0.,12.0
1981-08-27 13:18:15.890 ,0,0,0.,12.0,0.,12.0,0.,12.0,0.,12.0
1981-08-27 13:18:27.890 ,3,1,0.,12.0,0.,12.0,0.,12.0,0.,12.0
1981-08-27 13:18:39.890 ,3,1,0.,12.0,0.,12.0,0.,12.0,0.,12.0
1981-08-27 13:18:51.890 ,3,0,0.,12.0,0.,12.0,0.,12.0,0.,12.0
1981-08-27 13:19:03.890 ,3,0,0.,12.0,0.,12.0,0.,12.0,0.,12.0